KF5PJP Weather Reports


Display with metric or nautical units.
time (UTC)temp
F
wind
direction
speed
MPH
gust
MPH
rain 1hr
in
rain 24hr
in
rain mn
in
humidity
%
barometer
mb
20260504040401 63 91 0.0 0.0 0.00 0.00 0.00 68 1016.2
20260504035349 63 91 0.0 0.0 0.00 0.00 0.00 67 1016.2
20260504034933 63 91 0.0 0.0 0.00 0.00 0.00 67 1016.3
20260504034458 64 91 0.0 0.0 0.00 0.00 0.00 67 1016.3
20260504033844 64 91 0.0 0.0 0.00 0.00 0.00 66 1016.3
20260504033419 64 92 0.0 0.0 0.00 0.00 0.00 67 1016.2
20260504032408 65 92 0.0 0.0 0.00 0.00 0.00 66 1016.2
20260504031423 65 92 0.0 1.0 0.00 0.00 0.00 65 1016.3
20260504030847 65 92 0.0 1.0 0.00 0.00 0.00 66 1016.3
20260504025856 66 91 0.0 0.0 0.00 0.00 0.00 64 1016.3
20260504025409 66 91 0.0 1.0 0.00 0.00 0.00 63 1016.3
20260504024418 66 91 0.0 0.0 0.00 0.00 0.00 63 1016.4
20260504023403 67 91 0.0 0.0 0.00 0.00 0.00 61 1016.2
20260504022409 67 92 0.0 0.0 0.00 0.00 0.00 60 1016.1
20260504021414 68 92 0.0 0.0 0.00 0.00 0.00 59 1016.1
20260504020408 68 91 0.0 0.0 0.00 0.00 0.00 57 1016.0
20260504015930 69 91 0.0 0.0 0.00 0.00 0.00 57 1016.1
20260504015347 69 91 0.0 0.0 0.00 0.00 0.00 56 1016.1
20260504014353 70 91 0.0 0.0 0.00 0.00 0.00 55 1016.0
20260504013341 71 91 0.0 0.0 0.00 0.00 0.00 53 1015.9
20260504012921 71 91 0.0 1.0 0.00 0.00 0.00 52 1015.9
20260504011842 72 94 0.0 1.0 0.00 0.00 0.00 49 1015.9
20260504011412 73 109 0.0 0.0 0.00 0.00 0.00 48 1015.8
20260504010343 74 109 0.0 1.0 0.00 0.00 0.00 46 1015.7
20260504005919 75 110 0.0 1.0 0.00 0.00 0.00 45 1015.7
20260504005434 76 110 0.0 1.0 0.00 0.00 0.00 44 1015.7
20260504004854 77 110 0.0 1.0 0.00 0.00 0.00 43 1015.6
20260504003902 78 88 1.0 3.0 0.00 0.00 0.00 40 1015.7
20260504002906 78 80 0.0 2.0 0.00 0.00 0.00 41 1015.8
20260504001855 78 83 0.0 2.0 0.00 0.00 0.00 41 1015.9
20260504001432 78 117 0.0 1.0 0.00 0.00 0.00 41 1015.9
20260504000845 79 122 0.0 1.0 0.00 0.00 0.00 40 1016.0
20260504000423 79 318 0.0 1.0 0.00 0.00 0.00 41 1016.0
20260503235839 79 318 0.0 1.0 0.00 0.00 0.00 41 1016.0
20260503235404 79 267 0.0 2.0 0.00 0.00 0.00 42 1016.0
20260503234403 78 323 0.0 1.0 0.00 0.00 0.00 40 1016.0
20260503233914 78 13 0.0 4.0 0.00 0.00 0.00 40 1016.0
20260503232404 79 79 0.0 3.0 0.00 0.00 0.00 39 1016.0
20260503231929 79 78 1.0 8.0 0.00 0.00 0.00 38 1016.1
20260503231435 79 83 2.0 8.0 0.00 0.00 0.00 38 1016.2
20260503230902 79 44 1.0 4.0 0.00 0.00 0.00 38 1016.2
20260503225905 80 65 2.0 6.0 0.00 0.00 0.00 37 1016.2
20260503225437 80 108 3.0 6.0 0.00 0.00 0.00 36 1016.3
20260503224355 81 94 0.0 5.0 0.00 0.00 0.00 38 1016.2
20260503223400 82 91 1.0 3.0 0.00 0.00 0.00 38 1016.2
20260503222925 82 305 1.0 7.0 0.00 0.00 0.00 36 1016.3
20260503221858 82 78 1.0 4.0 0.00 0.00 0.00 36 1016.3
20260503220856 81 80 2.0 5.0 0.00 0.00 0.00 37 1016.4
20260503220438 81 80 2.0 5.0 0.00 0.00 0.00 36 1016.5
20260503215353 81 88 1.0 5.0 0.00 0.00 0.00 35 1016.5
20260503214357 81 99 2.0 8.0 0.00 0.00 0.00 36 1016.8
20260503213922 82 61 1.0 8.0 0.00 0.00 0.00 36 1016.9
20260503213357 82 88 2.0 4.0 0.00 0.00 0.00 36 1016.9
20260503212901 82 122 2.0 4.0 0.00 0.00 0.00 35 1017.0
20260503211906 80 99 2.0 10.0 0.00 0.00 0.00 39 1017.2
20260503210857 79 84 2.0 5.0 0.00 0.00 0.00 37 1017.4
20260503205913 81 111 1.0 5.0 0.00 0.00 0.00 39 1017.6
20260503205342 80 88 2.0 6.0 0.00 0.00 0.00 36 1017.7
20260503204917 80 26 2.0 7.0 0.00 0.00 0.00 39 1017.7
20260503204349 79 92 1.0 7.0 0.00 0.00 0.00 40 1017.7
20260503203921 80 67 2.0 8.0 0.00 0.00 0.00 40 1017.9
20260503202903 80 110 2.0 6.0 0.00 0.00 0.00 36 1018.2
20260503201900 81 96 3.0 7.0 0.00 0.00 0.00 36 1018.4
20260503200902 81 83 2.0 7.0 0.00 0.00 0.00 37 1018.4
20260503195900 81 87 1.0 6.0 0.00 0.00 0.00 39 1018.6
20260503194904 81 94 1.0 6.0 0.00 0.00 0.00 40 1018.8
20260503193906 80 89 3.0 8.0 0.00 0.00 0.00 39 1018.9
20260503192855 79 107 2.0 7.0 0.00 0.00 0.00 40 1019.2
20260503191854 79 78 4.0 7.0 0.00 0.00 0.00 39 1019.3
20260503190850 79 61 4.0 10.0 0.00 0.00 0.00 41 1019.4
20260503190352 78 96 3.0 14.0 0.00 0.00 0.00 42 1019.5
20260503185349 79 35 5.0 10.0 0.00 0.00 0.00 39 1019.6
20260503184344 78 90 2.0 8.0 0.00 0.00 0.00 41 1019.7
20260503183934 78 69 3.0 10.0 0.00 0.00 0.00 41 1019.8
20260503183410 78 66 4.0 10.0 0.00 0.00 0.00 40 1020.0
20260503182357 78 63 2.0 7.0 0.00 0.00 0.00 41 1020.1
20260503181924 78 105 2.0 7.0 0.00 0.00 0.00 44 1020.2
20260503181348 78 109 4.0 13.0 0.00 0.00 0.00 41 1020.3
20260503180926 78 115 2.0 8.0 0.00 0.00 0.00 44 1020.4
20260503180334 78 78 3.0 8.0 0.00 0.00 0.00 43 1020.6
20260503175402 78 91 3.0 8.0 0.00 0.00 0.00 41 1020.7
20260503174922 77 37 3.0 9.0 0.00 0.00 0.00 42 1020.7
20260503174354 77 74 3.0 9.0 0.00 0.00 0.00 42 1020.8
20260503173421 77 76 3.0 8.0 0.00 0.00 0.00 43 1021.0
20260503172926 77 107 4.0 8.0 0.00 0.00 0.00 43 1021.1
20260503172341 77 81 1.0 9.0 0.00 0.00 0.00 46 1021.1
20260503171906 77 48 3.0 7.0 0.00 0.00 0.00 45 1021.1
20260503171435 76 74 3.0 6.0 0.00 0.00 0.00 45 1021.1
20260503170855 76 311 0.0 8.0 0.00 0.00 0.00 49 1021.2
20260503170348 76 115 3.0 8.0 0.00 0.00 0.00 44 1021.3
20260503150931 70 84 2.0 5.0 0.00 0.00 0.00 55 1021.6
20260503150348 70 83 1.0 3.0 0.00 0.00 0.00 57 1021.6
20260503130849 54 134 0.0 0.0 0.00 0.00 0.00 90 1021.2
20260503110350 51 134 0.0 0.0 0.00 0.00 0.00 90 1019.9
20260503090427 52 134 0.0 0.0 0.00 0.00 0.00 89 1019.4
20260503081357 53 133 0.0 0.0 0.00 0.00 0.00 89 1019.5
20260503080425 52 134 0.0 0.0 0.00 0.00 0.00 89 1019.5
20260503072851 53 134 0.0 0.0 0.00 0.00 0.00 88 1019.6
20260503071855 53 134 0.0 0.0 0.00 0.00 0.00 88 1019.5
20260503070857 53 134 0.0 0.0 0.00 0.00 0.00 87 1019.6
20260503060341 55 133 0.0 0.0 0.00 0.00 0.00 83 1019.6
20260503054837 55 134 0.0 0.0 0.00 0.00 0.00 83 1019.6
20260503054335 55 134 0.0 0.0 0.00 0.00 0.00 83 1019.6
20260503053855 55 134 0.0 0.0 0.00 0.00 0.00 82 1019.6
20260503053348 56 134 0.0 0.0 0.00 0.00 0.00 82 1019.6
20260503052851 56 134 0.0 0.0 0.00 0.00 0.00 82 1019.5
20260503052336 56 134 0.0 0.0 0.00 0.00 0.00 81 1019.5
20260503051904 56 134 0.0 0.0 0.00 0.00 0.00 81 1019.6
20260503051353 56 134 0.0 0.0 0.00 0.00 0.00 81 1019.5
20260503050837 56 134 0.0 0.0 0.00 0.00 0.00 81 1019.5
20260503050359 56 134 0.0 0.0 0.00 0.00 0.00 80 1019.6
20260503045849 56 134 0.0 0.0 0.00 0.00 0.00 80 1019.5
20260503045411 56 134 0.0 0.0 0.00 0.00 0.00 80 1019.5
20260503044353 56 134 0.0 0.0 0.00 0.00 0.00 79 1019.5
20260503043918 57 133 0.0 0.0 0.00 0.00 0.00 79 1019.5
20260503043354 57 134 0.0 0.0 0.00 0.00 0.00 79 1019.5
20260503042400 57 134 0.0 0.0 0.00 0.00 0.00 79 1019.6
20260503041408 57 134 0.0 0.0 0.00 0.00 0.00 77 1019.6
20260503040940 57 134 0.0 0.0 0.00 0.00 0.00 77 1019.6